"startDT [UTC]","vpos","CH4 [ppm]","stdev(CH4) [ppm]","CO2 [ppm]","stdev(CO2) [ppm]","H2O [ppm]","stdev(H2O)","p_LGR [torr]","T_LGR [C]","mt1_LGR [us]","mt2_LGR [us]","T_ECpre [C]","T_EC1 [C]","T_EC2 [C]","p_inlet [hPa]","p_in [hPa]","p_out [hPa]","T_inlet [C]","RH_inlet [%]","dwpt_inlet [C]","T_vent [C]","RH_vent [%]","dwpt_vent [C]","flow_vent [l min-1]","flow_inlet [l min-1]","dwpt_sample [C]","T_room [C]"
2012-09-04 00:00:00,0.0,1.9333,0.0011,393.51,0.34,275.9,38.6,138.02,31.97,24.66,36.51,0.93,-25.78,16.81,-47,37,-925,25.0,30.1,6.2,25.1,1.8,-28.8,5.73,2.48,-27.0,31.3
2012-09-04 00:01:00,0.0,1.9331,0.0009,393.50,0.32,279.3,33.9,138.02,31.98,24.66,36.51,0.91,-25.78,16.91,-47,37,-925,25.0,30.1,6.2,25.1,1.8,-28.8,5.73,2.48,-27.0,31.2
2012-09-04 00:02:00,0.0,1.9337,0.0011,393.44,0.34,279.0,34.3,138.02,31.98,24.66,36.51,0.92,-25.78,17.00,-47,37,-926,25.0,30.2,6.3,25.2,1.8,-28.8,5.73,2.48,-27.0,31.3
2012-09-04 00:03:00,0.0,1.9336,0.0010,393.46,0.35,279.1,36.5,138.02,31.98,24.65,36.51,0.91,-25.78,17.08,-47,37,-926,25.0,30.2,6.3,25.2,1.7,-28.9,5.73,2.48,-27.0,31.3
2012-09-04 00:04:00,0.0,1.9334,0.0010,393.48,0.33,274.9,37.3,138.02,31.98,24.66,36.51,0.92,-25.77,17.17,-47,37,-926,25.0,30.1,6.2,25.2,1.7,-28.9,5.73,2.48,-27.0,31.3
2012-09-04 00:05:00,0.0,1.9332,0.0009,393.52,0.36,269.0,40.9,138.02,31.99,24.66,36.51,0.93,-25.77,17.25,-47,37,-925,25.0,30.1,6.2,25.2,1.7,-28.9,5.73,2.48,-27.0,31.3
2012-09-04 00:06:00,0.0,1.9336,0.0009,393.48,0.35,277.7,30.9,138.02,31.99,24.65,36.50,0.92,-25.77,17.33,-47,37,-926,25.0,30.1,6.2,25.2,1.7,-29.0,5.73,2.48,-27.0,31.3
2012-09-04 00:07:00,0.0,1.9339,0.0011,393.36,0.39,272.5,36.7,138.02,31.99,24.66,36.51,0.92,-25.76,17.41,-47,37,-926,25.0,30.1,6.3,25.2,1.7,-29.0,5.73,2.48,-27.0,31.3
2012-09-04 00:08:00,0.0,1.9341,0.0010,393.39,0.33,281.8,29.4,138.02,32.00,24.66,36.51,0.93,-25.76,17.48,-47,37,-926,25.0,30.1,6.3,25.2,1.7,-28.9,5.73,2.48,-27.0,31.3
2012-09-04 00:09:00,0.0,1.9340,0.0010,393.64,0.39,278.1,33.9,138.02,32.00,24.66,36.51,0.94,-25.76,17.55,-47,37,-926,25.0,30.0,6.2,25.2,1.7,-28.9,5.73,2.48,-27.0,31.4
2012-09-04 00:10:00,0.0,1.9335,0.0011,393.38,0.35,270.5,37.2,138.02,32.00,24.66,36.51,0.92,-25.75,17.61,-47,37,-926,25.0,29.9,6.2,25.2,1.7,-28.9,5.73,2.48,-27.0,31.4
2012-09-04 00:11:00,0.0,1.9339,0.0010,393.43,0.35,282.2,30.6,138.02,32.01,24.65,36.51,0.95,-25.75,17.68,-47,37,-926,25.0,29.8,6.1,25.3,1.7,-28.9,5.73,2.48,-27.0,31.4
2012-09-04 00:12:00,0.0,1.9335,0.0012,393.58,0.35,271.0,38.5,138.02,32.01,24.66,36.50,0.95,-25.74,17.74,-47,37,-926,25.0,29.7,6.0,25.3,1.7,-28.9,5.73,2.48,-27.0,31.4
2012-09-04 00:13:00,0.0,1.9338,0.0011,393.56,0.33,278.1,34.2,138.02,32.01,24.66,36.50,0.92,-25.75,17.79,-47,37,-926,25.0,29.6,6.0,25.3,1.7,-28.9,5.73,2.48,-27.0,31.4
2012-09-04 00:14:00,0.0,1.9346,0.0011,393.35,0.37,270.8,37.7,138.02,32.01,24.66,36.51,0.94,-25.74,17.85,-47,37,-926,25.0,29.6,6.0,25.3,1.7,-28.9,5.73,2.48,-27.0,31.4
2012-09-04 00:15:00,0.0,1.9350,0.0012,393.36,0.36,276.7,37.0,138.02,32.02,24.65,36.52,0.93,-25.73,17.90,-47,37,-926,25.0,29.6,6.0,25.3,1.7,-28.9,5.73,2.48,-27.0,31.4
2012-09-04 00:16:00,0.0,1.9344,0.0009,393.46,0.38,273.3,34.9,138.02,32.02,24.66,36.51,0.95,-25.74,17.95,-47,36,-926,25.0,29.6,6.0,25.3,1.7,-28.9,5.73,2.48,-27.0,31.4
2012-09-04 00:17:00,0.0,1.9351,0.0011,393.44,0.32,276.7,40.2,138.02,32.02,24.66,36.51,0.94,-25.74,18.00,-47,37,-926,25.0,29.6,6.0,25.3,1.7,-28.9,5.73,2.48,-27.0,31.4
2012-09-04 00:18:00,0.0,1.9357,0.0011,393.33,0.36,271.4,30.8,138.02,32.03,24.65,36.51,0.95,-25.73,18.05,-47,36,-926,25.0,29.8,6.1,25.3,1.7,-28.9,5.73,2.48,-27.0,31.5
2012-09-04 00:19:00,0.0,1.9355,0.0009,393.47,0.34,275.0,36.8,138.02,32.03,24.66,36.51,0.94,-25.73,18.10,-47,36,-926,25.0,29.8,6.1,25.3,1.7,-28.9,5.73,2.48,-27.0,31.5
2012-09-04 00:20:00,0.0,1.9361,0.0010,393.49,0.36,269.7,41.0,138.02,32.03,24.66,36.51,0.94,-25.73,18.14,-47,36,-926,25.0,29.8,6.1,25.3,1.7,-28.9,5.73,2.48,-27.0,31.5
2012-09-04 00:21:00,0.0,1.9361,0.0010,393.55,0.28,283.7,35.3,138.02,32.04,24.66,36.50,0.94,-25.73,18.18,-47,36,-926,25.0,29.9,6.1,25.3,1.7,-28.9,5.73,2.48,-27.0,31.5
2012-09-04 00:22:00,0.0,1.9357,0.0009,393.44,0.36,266.8,35.2,138.02,32.04,24.66,36.52,0.94,-25.73,18.22,-47,36,-926,25.0,29.9,6.1,25.3,1.7,-28.9,5.73,2.48,-27.0,31.5
2012-09-04 00:23:00,0.0,1.9355,0.0009,393.28,0.33,276.3,37.8,138.02,32.05,24.66,36.51,0.93,-25.72,18.25,-47,36,-926,25.0,30.0,6.2,25.3,1.7,-28.9,5.73,2.48,-27.0,31.4
2012-09-04 00:24:00,0.0,1.9359,0.0009,393.33,0.34,272.5,36.6,138.02,32.05,24.66,36.51,0.93,-25.72,18.29,-47,36,-926,25.0,30.1,6.3,25.3,1.7,-28.9,5.73,2.48,-27.0,31.4
2012-09-04 00:25:00,0.0,1.9362,0.0010,393.39,0.33,273.8,31.9,138.02,32.05,24.66,36.51,0.93,-25.72,18.33,-47,36,-926,25.0,30.2,6.3,25.3,1.7,-28.9,5.73,2.49,-27.0,31.6
2012-09-04 00:26:00,0.0,1.9355,0.0011,393.48,0.30,277.0,28.6,138.02,32.06,24.66,36.50,0.91,-25.72,18.36,-47,36,-926,25.0,30.2,6.3,25.3,1.7,-28.9,5.73,2.49,-27.1,31.7
2012-09-04 00:27:00,0.0,1.9359,0.0011,393.33,0.38,274.4,32.5,138.02,32.06,24.66,36.52,0.93,-25.72,18.39,-47,36,-926,25.0,30.1,6.3,25.3,1.7,-28.9,5.73,2.48,-27.1,31.6
2012-09-04 00:28:00,0.0,1.9357,0.0009,393.49,0.30,265.9,36.7,138.02,32.06,24.65,36.51,0.92,-25.71,18.43,-47,36,-926,24.9,30.1,6.2,25.3,1.7,-28.9,5.73,2.48,-27.1,31.7
2012-09-04 00:29:00,0.0,1.9352,0.0009,393.48,0.36,266.6,33.8,138.02,32.06,24.66,36.50,0.91,-25.71,18.45,-47,36,-926,24.9,30.1,6.2,25.2,1.7,-29.0,5.73,2.48,-27.2,31.6
2012-09-04 00:30:00,0.0,1.9398,0.0023,393.46,0.35,259.9,34.6,138.02,32.06,24.66,36.51,0.93,-25.71,18.48,-47,36,-926,24.8,30.1,6.1,25.1,1.7,-29.0,5.73,2.48,-27.2,31.6
2012-09-04 00:31:00,0.0,1.9366,0.0009,393.50,0.36,252.7,35.9,138.02,32.06,24.66,36.51,0.92,-25.71,18.50,-47,36,-926,24.7,30.1,6.0,25.1,1.7,-29.0,5.73,2.48,-27.3,31.5
2012-09-04 00:32:00,0.0,1.9361,0.0010,393.49,0.33,261.1,36.0,138.02,32.06,24.66,36.51,0.92,-25.71,18.53,-47,36,-926,24.6,30.0,5.9,25.0,1.7,-29.0,5.73,2.49,-27.3,31.4
2012-09-04 00:33:00,0.0,1.9369,0.0010,393.46,0.36,250.6,39.9,138.02,32.06,24.66,36.51,0.93,-25.71,18.56,-47,36,-926,24.5,30.1,5.8,24.9,1.7,-29.2,5.73,2.48,-27.3,31.4
2012-09-04 00:34:00,0.0,1.9363,0.0012,393.46,0.39,258.8,39.8,138.02,32.06,24.66,36.50,0.91,-25.71,18.58,-47,36,-926,24.4,30.1,5.8,24.9,1.7,-29.2,5.73,2.48,-27.3,31.4
2012-09-04 00:35:00,0.0,1.9357,0.0009,393.39,0.33,249.8,34.7,138.02,32.07,24.66,36.51,0.92,-25.71,18.60,-47,36,-926,24.4,30.0,5.7,24.8,1.7,-29.2,5.73,2.48,-27.4,31.4
2012-09-04 00:36:00,0.0,1.9358,0.0010,393.54,0.29,245.0,38.1,138.02,32.06,24.66,36.51,0.93,-25.71,18.62,-47,37,-926,24.3,29.8,5.5,24.8,1.7,-29.2,5.73,2.49,-27.4,31.3
2012-09-04 00:37:00,0.0,1.9367,0.0010,393.32,0.45,246.2,35.8,138.03,32.06,24.66,36.51,0.94,-25.71,18.64,-47,37,-926,24.2,30.0,5.6,24.7,1.8,-29.1,5.73,2.49,-27.4,31.2
2012-09-04 00:38:00,0.0,1.9365,0.0011,393.34,0.32,231.7,41.3,138.03,32.06,24.66,36.51,0.93,-25.72,18.66,-47,37,-926,24.2,30.3,5.6,24.7,1.8,-29.1,5.73,2.50,-27.4,31.2
2012-09-04 00:39:00,0.0,1.9366,0.0012,393.24,0.36,234.8,36.4,138.03,32.06,24.66,36.51,0.92,-25.72,18.67,-47,37,-926,24.1,30.4,5.6,24.6,1.8,-29.1,5.73,2.49,-27.4,31.1
2012-09-04 00:40:00,0.0,1.9359,0.0011,393.27,0.40,239.6,40.2,138.03,32.06,24.66,36.51,0.94,-25.72,18.69,-47,37,-926,24.0,30.5,5.6,24.6,1.8,-29.1,5.73,2.49,-27.4,31.1
2012-09-04 00:41:00,0.0,1.9356,0.0009,393.37,0.38,248.7,32.2,138.03,32.05,24.65,36.51,0.94,-25.72,18.71,-46,37,-926,24.0,30.3,5.5,24.5,1.8,-29.2,5.73,2.49,-27.4,31.0
2012-09-04 00:42:00,0.0,1.9357,0.0009,393.39,0.36,250.4,39.5,138.03,32.05,24.66,36.51,0.93,-25.72,18.72,-46,37,-925,23.9,30.2,5.4,24.5,1.8,-29.2,5.73,2.49,-27.4,31.0
2012-09-04 00:43:00,0.0,1.9356,0.0010,393.34,0.31,239.2,32.5,138.03,32.06,24.65,36.51,0.93,-25.72,18.74,-46,37,-926,23.9,30.2,5.3,24.5,1.8,-29.1,5.73,2.49,-27.4,31.0
2012-09-04 00:44:00,0.0,1.9358,0.0011,393.33,0.36,249.6,33.2,138.03,32.06,24.66,36.51,0.93,-25.73,18.74,-46,37,-926,23.8,30.3,5.3,24.4,1.8,-29.0,5.73,2.48,-27.4,30.9
2012-09-04 00:45:00,0.0,1.9359,0.0010,393.34,0.35,247.3,34.5,138.03,32.06,24.66,36.51,0.94,-25.73,18.77,-46,37,-926,23.8,30.2,5.3,24.4,1.8,-29.1,5.73,2.49,-27.4,30.9
2012-09-04 00:46:00,0.0,1.9351,0.0013,393.37,0.36,246.3,30.0,138.03,32.06,24.66,36.51,0.96,-25.73,18.76,-46,37,-925,23.8,30.2,5.2,24.3,1.8,-29.2,5.73,2.49,-27.4,30.8
2012-09-04 00:47:00,0.0,1.9361,0.0011,393.42,0.33,254.4,37.6,138.03,32.06,24.66,36.51,1.09,-25.74,17.78,-46,37,-926,23.8,30.0,5.1,24.3,1.8,-29.1,5.73,2.49,-27.3,30.8
2012-09-04 00:48:00,0.0,1.9357,0.0009,393.43,0.36,250.0,36.9,138.02,32.06,24.66,36.50,1.12,-25.73,15.63,-46,37,-925,23.8,29.9,5.1,24.3,1.8,-29.1,5.73,2.49,-27.3,30.8
2012-09-04 00:49:00,0.0,1.9356,0.0010,393.33,0.33,260.7,36.3,138.02,32.06,24.66,36.50,1.00,-25.76,13.25,-46,37,-926,23.8,29.8,5.1,24.3,1.8,-29.1,5.73,2.48,-27.3,30.8
2012-09-04 00:50:00,0.0,1.9355,0.0010,393.28,0.41,247.2,35.7,138.02,32.06,24.66,36.51,0.94,-25.82,10.86,-46,37,-926,23.7,29.6,4.9,24.3,1.8,-29.1,5.73,2.48,-27.4,30.7
2012-09-04 00:51:00,0.0,1.9354,0.0011,393.30,0.43,253.3,37.6,138.02,32.06,24.66,36.50,1.05,-25.87,8.54,-46,37,-925,23.7,29.7,4.9,24.3,1.8,-29.1,5.73,2.48,-27.4,30.8
2012-09-04 00:52:00,0.0,1.9355,0.0012,393.50,0.35,254.2,31.8,138.02,32.06,24.66,36.51,1.09,-25.89,6.33,-46,37,-925,23.7,29.5,4.8,24.3,1.8,-29.2,5.73,2.48,-27.4,30.8
2012-09-04 00:53:00,0.0,1.9351,0.0011,393.47,0.37,245.8,31.9,138.02,32.06,24.66,36.51,0.97,-25.90,4.22,-46,37,-925,23.6,29.4,4.7,24.2,1.8,-29.3,5.73,2.48,-27.4,30.7
2012-09-04 00:54:00,0.0,1.9351,0.0010,393.48,0.37,253.6,33.3,138.02,32.06,24.65,36.50,1.05,-25.90,2.22,-46,37,-925,23.6,29.6,4.8,24.2,1.8,-29.0,5.73,2.49,-27.5,30.6
2012-09-04 00:55:00,0.0,1.9351,0.0010,393.42,0.35,238.3,36.3,138.02,32.06,24.66,36.51,1.06,-25.91,0.33,-46,37,-925,23.5,29.6,4.7,24.1,1.9,-28.9,5.73,2.49,-27.5,30.6
2012-09-04 00:56:00,0.0,1.9353,0.0010,393.37,0.32,239.2,33.5,138.02,32.07,24.66,36.51,0.98,-25.91,-1.46,-46,37,-925,23.5,29.5,4.7,24.1,1.9,-28.9,5.73,2.49,-27.5,30.5
2012-09-04 00:57:00,0.0,1.9348,0.0011,393.42,0.34,238.6,30.9,138.02,32.07,24.66,36.51,1.04,-25.92,-3.13,-46,37,-925,23.4,29.4,4.6,24.1,1.9,-29.0,5.73,2.50,-27.6,30.5
2012-09-04 00:58:00,0.0,1.9349,0.0011,393.42,0.36,230.4,32.6,138.02,32.07,24.66,36.51,1.07,-25.91,-4.44,-46,37,-925,23.4,29.2,4.4,24.0,1.9,-29.0,5.73,2.50,-27.6,30.4
2012-09-04 00:59:00,0.0,1.9366,0.0020,393.51,0.35,227.9,33.8,138.03,32.07,24.66,36.51,0.95,-25.92,-5.54,-46,38,-925,23.4,29.0,4.3,24.0,1.9,-29.0,5.73,2.50,-27.7,30.3
2012-09-04 01:00:00,0.0,1.9362,0.0014,393.52,0.30,225.8,38.9,138.03,32.07,24.66,36.50,1.02,-25.93,-6.74,-46,38,-925,23.3,29.0,4.3,23.9,1.9,-29.0,5.73,2.50,-27.7,30.3
2012-09-04 01:01:00,0.0,1.9358,0.0010,393.40,0.33,227.8,37.0,138.03,32.06,24.66,36.51,1.08,-25.94,-8.02,-46,38,-925,23.3,28.9,4.2,23.9,1.9,-29.1,5.73,2.49,-27.7,30.2
2012-09-04 01:02:00,0.0,1.9357,0.0011,393.40,0.36,223.0,37.6,138.03,32.06,24.65,36.50,1.00,-25.94,-9.26,-46,38,-925,23.3,28.9,4.2,23.9,1.9,-29.1,5.73,2.50,-27.7,30.1
2012-09-04 01:03:00,0.0,1.9360,0.0011,393.43,0.35,226.5,39.3,138.03,32.06,24.65,36.51,0.98,-25.95,-10.46,-46,38,-925,23.2,29.0,4.2,23.8,1.9,-29.1,5.73,2.50,-27.7,30.1
2012-09-04 01:04:00,0.0,1.9352,0.0011,393.42,0.37,224.1,36.2,138.03,32.06,24.66,36.50,1.05,-25.95,-11.57,-46,38,-925,23.2,28.6,4.0,23.8,1.9,-29.1,5.73,2.51,-27.7,30.1
2012-09-04 01:05:00,0.0,1.9355,0.0010,393.45,0.30,226.3,37.2,138.03,32.06,24.66,36.51,1.05,-25.96,-12.67,-46,38,-925,23.2,28.5,3.9,23.8,1.9,-29.1,5.73,2.51,-27.7,30.1
2012-09-04 01:06:00,0.0,1.9359,0.0011,393.46,0.32,231.2,35.3,138.03,32.05,24.66,36.51,0.95,-25.97,-13.70,-46,38,-925,23.2,28.5,3.9,23.8,1.9,-29.1,5.73,2.51,-27.7,30.1
2012-09-04 01:07:00,0.0,1.9362,0.0010,393.44,0.35,236.2,31.2,138.03,32.05,24.66,36.51,1.00,-25.98,-14.66,-46,38,-925,23.1,28.5,3.9,23.8,1.9,-29.1,5.73,2.51,-27.7,30.1
2012-09-04 01:08:00,0.0,1.9356,0.0010,393.54,0.46,225.1,36.2,138.03,32.05,24.65,36.50,1.07,-25.98,-15.57,-46,38,-925,23.1,28.5,3.9,23.7,1.9,-29.0,5.73,2.51,-27.7,30.0
2012-09-04 01:09:00,0.0,1.9356,0.0010,393.44,0.38,235.9,39.1,138.03,32.05,24.66,36.51,1.02,-25.99,-16.41,-46,38,-925,23.1,28.7,3.9,23.7,1.9,-29.0,5.73,2.50,-27.7,29.9
2012-09-04 01:10:00,0.0,1.9361,0.0011,393.49,0.35,225.9,33.5,138.03,32.05,24.66,36.51,0.96,-26.01,-17.15,-46,38,-925,23.1,28.8,3.9,23.7,1.9,-29.1,5.73,2.51,-27.7,29.8
2012-09-04 01:11:00,0.0,1.9356,0.0010,393.50,0.34,221.0,38.2,138.03,32.05,24.66,36.51,0.99,-26.01,-17.86,-46,39,-925,23.0,28.8,3.9,23.7,1.9,-29.1,5.73,2.50,-27.8,29.8
2012-09-04 01:12:00,0.0,1.9361,0.0011,393.50,0.38,220.6,36.6,138.03,32.05,24.66,36.50,1.06,-26.03,-18.58,-46,39,-925,23.0,28.9,4.0,23.6,1.9,-29.1,5.73,2.50,-27.7,29.7
2012-09-04 01:13:00,0.0,1.9359,0.0012,393.37,0.31,220.5,36.1,138.03,32.04,24.66,36.51,1.03,-26.04,-19.26,-46,39,-925,23.0,28.7,3.9,23.6,1.9,-29.1,5.73,2.50,-27.8,29.7
2012-09-04 01:14:00,0.0,1.9358,0.0010,393.49,0.37,219.0,41.9,138.03,32.04,24.66,36.51,0.95,-26.05,-19.90,-46,39,-924,23.0,28.6,3.8,23.5,1.9,-29.1,5.73,2.51,-27.8,29.6
2012-09-04 01:15:00,0.0,1.9358,0.0008,393.47,0.37,213.2,29.1,138.03,32.04,24.66,36.50,1.01,-26.06,-20.50,-46,39,-924,23.0,28.7,3.8,23.5,1.9,-29.1,5.73,2.51,-27.8,29.6
2012-09-04 01:16:00,0.0,1.9358,0.0011,393.51,0.35,217.3,34.3,138.03,32.04,24.66,36.50,1.06,-26.07,-21.06,-46,39,-925,23.0,28.7,3.8,23.5,1.9,-29.2,5.73,2.52,-27.8,29.6
2012-09-04 01:17:00,0.0,1.9357,0.0013,393.47,0.39,207.9,33.5,138.03,32.04,24.66,36.50,1.01,-26.09,-21.60,-46,39,-924,22.9,28.5,3.7,23.5,1.9,-29.2,5.73,2.53,-27.8,29.5
2012-09-04 01:18:00,0.0,1.9355,0.0010,393.29,0.43,222.0,29.2,138.03,32.04,24.66,36.52,0.95,-26.11,-22.10,-46,39,-925,22.9,28.4,3.6,23.5,1.9,-29.1,5.73,2.52,-27.8,29.6
2012-09-04 01:19:00,0.0,1.9363,0.0009,393.27,0.37,223.9,40.2,138.03,32.03,24.66,36.51,1.00,-26.12,-22.58,-46,39,-924,22.9,28.4,3.7,23.5,1.9,-29.2,5.73,2.52,-27.8,29.5
2012-09-04 01:20:00,0.0,1.9367,0.0009,393.59,0.35,219.3,40.3,138.03,32.03,24.65,36.51,1.06,-26.14,-23.03,-46,39,-924,22.9,28.3,3.6,23.5,1.9,-29.1,5.73,2.51,-27.8,29.5
2012-09-04 01:21:00,0.0,1.9364,0.0012,393.51,0.35,228.4,32.6,138.03,32.03,24.65,36.51,1.02,-26.15,-23.45,-46,39,-924,22.9,28.2,3.5,23.4,1.9,-29.2,5.73,2.51,-27.8,29.4
2012-09-04 01:22:00,0.0,1.9356,0.0012,393.48,0.34,229.8,34.1,138.03,32.03,24.66,36.50,0.95,-26.17,-23.85,-46,39,-924,22.9,28.5,3.6,23.4,1.9,-29.1,5.73,2.51,-27.8,29.5
2012-09-04 01:23:00,0.0,1.9352,0.0011,393.43,0.33,208.5,40.8,138.03,32.03,24.66,36.51,1.00,-26.19,-24.23,-46,39,-925,22.9,28.3,3.5,23.4,1.9,-29.3,5.73,2.51,-27.8,29.3
2012-09-04 01:24:00,0.0,1.9354,0.0009,393.50,0.34,222.3,42.7,138.03,32.02,24.65,36.51,1.03,-26.21,-24.58,-46,39,-924,22.8,28.2,3.5,23.4,1.9,-29.4,5.73,2.52,-27.9,29.3
2012-09-04 01:25:00,0.0,1.9354,0.0010,393.47,0.35,220.9,34.0,138.03,32.02,24.66,36.51,1.04,-26.22,-24.92,-46,39,-924,22.9,28.3,3.5,23.4,1.9,-29.4,5.73,2.52,-27.9,29.2
2012-09-04 01:26:00,0.0,1.9352,0.0012,393.57,0.38,209.1,27.7,138.03,32.02,24.66,36.50,0.96,-26.23,-25.23,-46,39,-924,22.8,28.3,3.5,23.3,1.8,-29.5,5.73,2.53,-27.9,29.2
2012-09-04 01:27:00,0.0,1.9353,0.0011,393.35,0.41,214.4,38.1,138.03,32.02,24.66,36.51,0.97,-26.25,-25.53,-46,39,-924,22.8,28.4,3.5,23.3,1.9,-29.4,5.73,2.53,-27.9,29.2
2012-09-04 01:28:00,0.0,1.9356,0.0010,393.35,0.32,212.6,28.9,138.03,32.02,24.66,36.52,1.01,-26.26,-25.81,-46,39,-924,22.8,28.0,3.3,23.3,1.9,-29.4,5.73,2.52,-27.9,29.2
2012-09-04 01:29:00,0.0,1.9354,0.0011,393.45,0.32,211.5,30.7,138.03,32.02,24.66,36.51,1.06,-26.27,-26.07,-46,40,-924,22.8,28.0,3.3,23.3,1.9,-29.5,5.73,2.51,-27.9,29.2
2012-09-04 01:30:00,0.0,1.9354,0.0010,393.51,0.32,203.7,37.0,138.03,32.02,24.66,36.50,0.96,-26.29,-26.29,-46,40,-924,22.8,28.0,3.3,23.3,1.9,-29.4,5.73,2.51,-28.0,29.1
2012-09-04 01:31:00,0.0,1.9350,0.0010,393.33,0.34,206.9,34.2,138.03,32.01,24.65,36.51,0.95,-26.31,-26.06,-45,40,-924,22.8,27.8,3.2,23.3,1.9,-29.4,5.73,2.52,-28.0,29.1
2012-09-04 01:32:00,0.0,1.9354,0.0012,393.43,0.37,209.7,35.0,138.03,32.01,24.65,36.50,0.96,-26.32,-26.14,-45,40,-924,22.8,27.8,3.2,23.3,1.9,-29.5,5.73,2.52,-28.0,29.2
2012-09-04 01:33:00,0.0,1.9343,0.0009,393.36,0.39,218.7,33.9,138.03,32.01,24.66,36.51,0.97,-26.32,-26.32,-46,40,-924,22.8,27.7,3.2,23.3,1.9,-29.4,5.73,2.53,-27.9,29.2
2012-09-04 01:34:00,0.0,1.9343,0.0010,393.43,0.36,214.0,37.7,138.03,32.01,24.66,36.51,1.01,-26.34,-26.10,-45,40,-924,22.8,27.6,3.1,23.3,1.9,-29.4,5.73,2.54,-28.0,29.2
2012-09-04 01:35:00,0.0,1.9341,0.0010,393.37,0.43,213.6,40.8,138.03,32.00,24.66,36.51,1.07,-26.35,-26.16,-45,40,-924,22.8,27.6,3.1,23.3,1.9,-29.4,5.73,2.53,-28.0,29.2
2012-09-04 01:36:00,0.0,1.9343,0.0012,393.41,0.33,210.5,40.3,138.03,32.00,24.66,36.51,1.00,-26.36,-26.35,-45,40,-924,22.8,27.5,3.1,23.3,1.9,-29.5,5.73,2.52,-28.0,29.2
2012-09-04 01:37:00,0.0,1.9341,0.0011,393.45,0.34,203.8,34.3,138.03,32.00,24.66,36.50,0.94,-26.37,-26.16,-45,40,-924,22.8,27.4,3.0,23.3,1.8,-29.5,5.73,2.52,-28.0,29.1
2012-09-04 01:38:00,0.0,1.9338,0.0011,393.23,0.41,213.4,27.7,138.03,32.00,24.66,36.51,0.95,-26.39,-26.18,-45,40,-924,22.8,27.7,3.2,23.3,1.9,-29.5,5.73,2.52,-28.0,29.0
2012-09-04 01:39:00,0.0,1.9344,0.0011,393.38,0.36,210.5,33.0,138.03,32.00,24.66,36.51,0.97,-26.39,-26.37,-45,40,-924,22.8,27.3,3.0,23.2,1.9,-29.4,5.73,2.52,-28.0,29.1
2012-09-04 01:40:00,0.0,1.9344,0.0013,393.33,0.36,197.8,33.8,138.03,31.99,24.65,36.51,0.99,-26.41,-26.22,-45,40,-924,22.8,27.0,2.8,23.2,1.8,-29.6,5.73,2.53,-28.0,29.0
2012-09-04 01:41:00,0.0,1.9340,0.0012,393.27,0.36,202.1,31.0,138.03,31.99,24.66,36.51,1.06,-26.41,-26.20,-45,40,-924,22.8,26.9,2.7,23.2,1.9,-29.5,5.73,2.53,-28.0,29.1
2012-09-04 01:42:00,0.0,1.9333,0.0009,393.36,0.35,199.9,33.3,138.03,31.99,24.66,36.51,1.03,-26.42,-26.39,-45,40,-923,22.8,26.7,2.6,23.2,1.8,-29.6,5.73,2.53,-28.0,29.1
2012-09-04 01:43:00,0.0,1.9335,0.0009,393.38,0.36,208.5,29.7,138.03,31.99,24.66,36.51,0.95,-26.43,-26.27,-45,40,-924,22.8,26.4,2.5,23.2,1.9,-29.5,5.73,2.53,-28.0,29.0
2012-09-04 01:44:00,0.0,1.9335,0.0009,393.39,0.31,202.6,34.2,138.03,31.99,24.66,36.50,0.97,-26.44,-26.22,-45,40,-924,22.8,26.0,2.3,23.3,1.9,-29.5,5.73,2.52,-28.0,29.0
2012-09-04 01:45:00,0.0,1.9337,0.0010,393.35,0.34,207.0,31.6,138.03,31.99,24.66,36.50,0.96,-26.44,-26.40,-45,40,-924,22.8,26.0,2.3,23.2,1.8,-29.6,5.73,2.52,-28.0,28.9
2012-09-04 01:46:00,0.0,1.9333,0.0010,393.31,0.39,203.9,40.6,138.03,31.98,24.66,36.50,0.96,-25.71,-26.60,-45,40,-924,22.8,26.1,2.3,23.2,1.8,-29.7,5.73,2.52,-28.1,28.9
2012-09-04 01:47:00,0.0,1.9335,0.0010,393.16,0.33,201.0,36.0,138.03,31.98,24.65,36.51,0.96,-23.93,-26.76,-45,40,-924,22.8,26.0,2.3,23.2,1.8,-29.8,5.73,2.52,-28.0,29.0
2012-09-04 01:48:00,0.0,1.9326,0.0012,393.19,0.34,236.1,32.5,138.03,31.98,24.66,36.51,0.91,-21.99,-26.87,-45,40,-924,22.8,26.4,2.5,23.2,1.9,-29.6,5.73,2.53,-27.6,29.1
2012-09-04 01:49:00,0.0,1.9327,0.0012,393.24,0.31,255.0,35.4,138.03,31.98,24.66,36.50,0.86,-20.08,-26.93,-45,40,-924,22.8,25.8,2.2,23.2,2.0,-29.0,5.73,2.53,-27.2,29.2
2012-09-04 01:50:00,0.0,1.9324,0.0012,393.24,0.34,279.1,32.3,138.03,31.97,24.66,36.50,0.86,-18.27,-26.98,-45,40,-923,22.9,25.9,2.3,23.3,2.1,-28.3,5.73,2.53,-26.9,29.2
2012-09-04 01:51:00,0.0,1.9327,0.0010,393.15,0.34,282.8,30.6,138.03,31.97,24.65,36.51,0.87,-16.54,-27.01,-45,40,-924,22.9,25.5,2.1,23.3,2.1,-28.0,5.73,2.53,-26.8,29.2
2012-09-04 01:52:00,0.0,1.9322,0.0011,393.17,0.36,292.6,39.5,138.03,31.97,24.65,36.51,0.89,-14.89,-27.03,-45,40,-924,22.9,25.8,2.2,23.3,2.2,-27.9,5.73,2.52,-26.8,29.2
2012-09-04 01:53:00,0.0,1.9323,0.0011,393.23,0.40,287.2,34.5,138.03,31.97,24.66,36.51,0.92,-13.33,-27.03,-45,40,-923,22.9,25.3,2.0,23.3,2.2,-27.9,5.73,2.52,-26.8,29.2
2012-09-04 01:54:00,0.0,1.9314,0.0012,393.22,0.38,279.7,31.4,138.03,31.97,24.66,36.50,0.93,-11.86,-27.05,-45,40,-924,22.9,25.8,2.3,23.3,2.2,-27.8,5.73,2.52,-26.8,29.2
2012-09-04 01:55:00,0.0,1.9323,0.0011,393.33,0.37,286.9,34.2,138.03,31.97,24.66,36.50,0.94,-10.46,-27.05,-45,40,-924,22.9,25.9,2.3,23.3,2.1,-27.9,5.73,2.51,-26.8,29.2
2012-09-04 01:56:00,0.0,1.9325,0.0010,393.35,0.34,285.6,36.0,138.03,31.97,24.66,36.50,0.93,-9.14,-27.05,-45,40,-923,22.9,25.4,2.1,23.3,2.1,-28.0,5.73,2.51,-26.9,29.2
2012-09-04 01:57:00,0.0,1.9326,0.0011,393.29,0.31,280.4,32.0,138.03,31.97,24.66,36.50,0.91,-7.89,-27.05,-45,40,-923,22.9,25.3,2.0,23.3,2.1,-28.0,5.73,2.51,-27.0,29.2
2012-09-04 01:58:00,0.0,1.9330,0.0011,393.36,0.28,280.3,31.6,138.03,31.97,24.66,36.50,0.89,-6.69,-27.04,-45,40,-924,22.9,25.1,1.9,23.3,2.1,-28.1,5.73,2.51,-27.0,29.2
2012-09-04 01:59:00,0.0,1.9342,0.0011,393.29,0.37,279.4,32.5,138.03,31.98,24.65,36.51,0.88,-5.56,-27.04,-45,40,-924,23.0,25.6,2.2,23.3,2.1,-28.3,5.73,2.51,-27.1,29.2
2012-09-04 02:00:00,0.0,1.9343,0.0009,393.26,0.35,272.6,34.6,138.03,31.98,24.66,36.51,0.88,-4.49,-27.03,-45,40,-923,23.0,25.0,1.9,23.3,2.1,-28.3,5.73,2.52,-27.1,29.2
2012-09-04 02:01:00,0.0,1.9348,0.0010,393.29,0.34,270.8,38.3,138.03,31.97,24.66,36.51,0.91,-3.46,-27.03,-45,40,-924,23.0,25.1,1.9,23.4,2.0,-28.5,5.73,2.52,-27.2,29.3
2012-09-04 02:02:00,0.0,1.9351,0.0012,393.27,0.36,263.4,31.3,138.03,31.97,24.65,36.51,0.92,-2.49,-27.02,-45,40,-924,23.0,25.1,1.9,23.3,2.0,-28.6,5.73,2.51,-27.2,29.3
2012-09-04 02:03:00,0.0,1.9353,0.0008,393.28,0.28,255.6,41.8,138.03,31.97,24.66,36.51,0.93,-1.57,-27.01,-45,40,-923,23.0,25.2,2.0,23.4,2.0,-28.6,5.73,2.52,-27.2,29.3
2012-09-04 02:04:00,0.0,1.9358,0.0010,393.27,0.37,267.6,38.5,138.03,31.97,24.65,36.51,0.93,-0.70,-27.00,-45,40,-924,23.0,25.3,2.1,23.4,2.0,-28.7,5.73,2.51,-27.3,29.4
2012-09-04 02:05:00,0.0,1.9361,0.0010,393.38,0.27,253.3,41.9,138.03,31.97,24.66,36.51,0.94,0.13,-26.99,-45,40,-924,23.1,24.7,1.8,23.4,2.0,-28.6,5.73,2.51,-27.3,29.4
2012-09-04 02:06:00,0.0,1.9363,0.0009,393.44,0.38,250.9,35.0,138.03,31.98,24.65,36.50,0.94,0.91,-26.98,-45,40,-923,23.1,25.1,2.0,23.4,1.9,-28.9,5.73,2.51,-27.4,29.4
2012-09-04 02:07:00,0.0,1.9362,0.0010,393.25,0.42,248.0,34.7,138.03,31.98,24.66,36.52,0.93,1.64,-26.97,-45,40,-924,23.1,25.3,2.1,23.4,2.0,-28.9,5.73,2.51,-27.4,29.3
2012-09-04 02:08:00,0.0,1.9376,0.0010,393.41,0.37,242.4,34.3,138.03,31.98,24.66,36.50,0.94,2.30,-26.96,-45,40,-924,23.1,25.4,2.2,23.4,2.0,-28.7,5.73,2.51,-27.5,29.3
2012-09-04 02:09:00,0.0,1.9377,0.0011,393.23,0.34,241.8,33.7,138.03,31.98,24.65,36.51,0.94,2.77,-26.94,-45,40,-924,23.1,26.1,2.6,23.4,1.9,-28.9,5.73,2.51,-27.5,29.3
2012-09-04 02:10:00,0.0,1.9377,0.0012,393.49,0.29,243.6,30.9,138.03,31.98,24.66,36.50,0.94,2.92,-26.93,-45,40,-924,23.0,25.9,2.4,23.4,1.9,-29.1,5.73,2.51,-27.6,29.3
2012-09-04 02:11:00,0.0,1.9381,0.0011,393.36,0.28,237.4,35.6,138.03,31.97,24.66,36.51,0.95,3.20,-26.92,-45,40,-924,23.1,25.7,2.4,23.4,1.9,-28.9,5.73,2.51,-27.6,29.3
2012-09-04 02:12:00,0.0,1.9384,0.0011,393.29,0.35,232.0,31.1,138.03,31.98,24.66,36.52,0.93,3.56,-26.90,-45,40,-924,23.1,25.5,2.2,23.4,1.9,-29.2,5.73,2.51,-27.6,29.2
2012-09-04 02:13:00,0.0,1.9392,0.0011,393.52,0.36,224.3,30.9,138.03,31.98,24.66,36.50,0.92,3.97,-26.88,-45,40,-924,23.1,24.8,1.9,23.5,1.9,-29.2,5.73,2.51,-27.7,29.3
2012-09-04 02:14:00,0.0,1.9396,0.0010,393.37,0.30,234.6,32.6,138.03,31.98,24.65,36.51,0.90,4.45,-26.87,-45,40,-924,23.1,25.3,2.1,23.4,1.9,-29.0,5.73,2.51,-27.7,29.3
2012-09-04 02:15:00,0.0,1.9400,0.0010,393.22,0.37,232.6,39.1,138.03,31.98,24.65,36.52,0.93,4.84,-26.86,-45,40,-924,23.1,25.4,2.2,23.4,1.9,-29.2,5.73,2.51,-27.7,29.3
2012-09-04 02:16:00,0.0,1.9398,0.0010,393.40,0.35,222.3,32.0,138.03,31.98,24.66,36.51,0.92,5.31,-26.85,-45,40,-924,23.1,25.7,2.4,23.5,1.9,-29.3,5.73,2.51,-27.7,29.4
2012-09-04 02:17:00,0.0,1.9401,0.0011,393.46,0.34,222.7,41.9,138.03,31.98,24.66,36.51,0.94,5.79,-26.83,-45,40,-924,23.1,25.6,2.3,23.5,1.9,-29.1,5.73,2.51,-27.7,29.4
2012-09-04 02:18:00,0.0,1.9403,0.0010,393.31,0.37,218.5,35.1,138.03,31.98,24.66,36.52,0.92,6.24,-26.83,-45,40,-924,23.2,25.3,2.2,23.5,1.9,-29.2,5.73,2.51,-27.7,29.3
2012-09-04 02:19:00,0.0,1.9402,0.0011,393.44,0.32,230.6,26.8,138.03,31.98,24.66,36.51,0.90,6.76,-26.81,-45,39,-924,23.2,25.1,2.1,23.5,1.9,-29.3,5.73,2.51,-27.8,29.3
2012-09-04 02:20:00,0.0,1.9403,0.0012,393.44,0.32,215.3,40.7,138.03,31.98,24.66,36.50,0.91,7.24,-26.80,-45,39,-924,23.1,25.1,2.1,23.5,1.9,-29.2,5.73,2.51,-27.8,29.3